Year,Month,Day,Hour,Minute,Value (Times are PST for temperature in C)
2014,07,17,00,00,21.90
2014,07,17,00,01,21.80
2014,07,17,00,02,21.80
2014,07,17,00,03,21.80
2014,07,17,00,04,21.80
2014,07,17,00,05,21.80
2014,07,17,00,06,21.70
2014,07,17,00,07,21.70
2014,07,17,00,08,21.70
2014,07,17,00,09,21.70
2014,07,17,00,10,21.70
2014,07,17,00,11,21.60
2014,07,17,00,12,21.60
2014,07,17,00,13,21.60
2014,07,17,00,14,21.60
2014,07,17,00,15,21.50
2014,07,17,00,16,21.50
2014,07,17,00,17,21.40
2014,07,17,00,18,21.40
2014,07,17,00,19,21.40
2014,07,17,00,20,21.30
2014,07,17,00,21,21.30
2014,07,17,00,22,21.30
2014,07,17,00,23,21.20
2014,07,17,00,24,21.20
2014,07,17,00,25,21.20
2014,07,17,00,26,21.10
2014,07,17,00,27,21.10
2014,07,17,00,28,21.10
2014,07,17,00,29,21.00
2014,07,17,00,30,21.00
2014,07,17,00,31,20.90
2014,07,17,00,32,20.90
2014,07,17,00,33,20.90
2014,07,17,00,34,20.80
2014,07,17,00,35,20.80
2014,07,17,00,36,20.80
2014,07,17,00,37,20.80
2014,07,17,00,38,20.80
2014,07,17,00,39,20.70
2014,07,17,00,40,20.70
2014,07,17,00,41,20.70
2014,07,17,00,42,20.70
2014,07,17,00,43,20.60
2014,07,17,00,44,20.60
2014,07,17,00,45,20.60
2014,07,17,00,46,20.60
2014,07,17,00,47,20.60
2014,07,17,00,48,20.60
2014,07,17,00,49,20.60
2014,07,17,00,50,20.60
2014,07,17,00,51,20.60
2014,07,17,00,52,20.60
2014,07,17,00,53,20.60
2014,07,17,00,54,20.60
2014,07,17,00,55,20.60
2014,07,17,00,56,20.60
2014,07,17,00,57,20.60
2014,07,17,00,58,20.60
2014,07,17,00,59,20.60
2014,07,17,01,00,20.50
2014,07,17,01,01,20.50
2014,07,17,01,02,20.50
2014,07,17,01,03,20.50
2014,07,17,01,04,20.50
2014,07,17,01,05,20.50
2014,07,17,01,06,20.50
2014,07,17,01,07,20.40
2014,07,17,01,08,20.40
2014,07,17,01,09,20.40
2014,07,17,01,10,20.40
2014,07,17,01,11,20.40
2014,07,17,01,12,20.40
2014,07,17,01,13,20.40
2014,07,17,01,14,20.30
2014,07,17,01,15,20.30
2014,07,17,01,16,20.30
2014,07,17,01,17,20.30
2014,07,17,01,18,20.30
2014,07,17,01,19,20.20
2014,07,17,01,20,20.20
2014,07,17,01,21,20.20
2014,07,17,01,22,20.20
2014,07,17,01,23,20.10
2014,07,17,01,24,20.10
2014,07,17,01,25,20.10
2014,07,17,01,26,20.00
2014,07,17,01,27,20.00
2014,07,17,01,28,20.00
2014,07,17,01,29,19.90
2014,07,17,01,30,19.90
2014,07,17,01,31,19.90
2014,07,17,01,32,19.90
2014,07,17,01,33,19.90
2014,07,17,01,34,19.80
2014,07,17,01,35,19.80
2014,07,17,01,36,19.80
2014,07,17,01,37,19.70
2014,07,17,01,38,19.70
2014,07,17,01,39,19.70
2014,07,17,01,40,19.70
2014,07,17,01,41,19.70
2014,07,17,01,42,19.60
2014,07,17,01,43,19.60
2014,07,17,01,44,19.60
2014,07,17,01,45,19.60
2014,07,17,01,46,19.50
2014,07,17,01,47,19.50
2014,07,17,01,48,19.50
2014,07,17,01,49,19.50
2014,07,17,01,50,19.40
2014,07,17,01,51,19.40
2014,07,17,01,52,19.40
2014,07,17,01,53,19.40
2014,07,17,01,54,19.40
2014,07,17,01,55,19.40
2014,07,17,01,56,19.40
2014,07,17,01,57,19.40
2014,07,17,01,58,19.40
2014,07,17,01,59,19.40
2014,07,17,02,00,19.40
2014,07,17,02,01,19.30
2014,07,17,02,02,19.30
2014,07,17,02,03,19.30
2014,07,17,02,04,19.30
2014,07,17,02,05,19.30
2014,07,17,02,06,19.30
2014,07,17,02,07,19.30
2014,07,17,02,08,19.30
2014,07,17,02,09,19.30
2014,07,17,02,10,19.30
2014,07,17,02,11,19.30
2014,07,17,02,12,19.30
2014,07,17,02,13,19.30
2014,07,17,02,14,19.30
2014,07,17,02,15,19.30
2014,07,17,02,16,19.30
2014,07,17,02,17,19.30
2014,07,17,02,18,19.30
2014,07,17,02,19,19.30
2014,07,17,02,20,19.40
2014,07,17,02,21,19.40
2014,07,17,02,22,19.40
2014,07,17,02,23,19.50
2014,07,17,02,24,19.50
2014,07,17,02,25,19.50
2014,07,17,02,26,19.60
2014,07,17,02,27,19.60
2014,07,17,02,28,19.60
2014,07,17,02,29,19.60
2014,07,17,02,30,19.60
2014,07,17,02,31,19.60
2014,07,17,02,32,19.60
2014,07,17,02,33,19.60
2014,07,17,02,34,19.70
2014,07,17,02,35,19.70
2014,07,17,02,36,19.70
2014,07,17,02,37,19.70
2014,07,17,02,38,19.70
2014,07,17,02,39,19.70
2014,07,17,02,40,19.60
2014,07,17,02,41,19.60
2014,07,17,02,42,19.60
2014,07,17,02,43,19.60
2014,07,17,02,44,19.60
2014,07,17,02,45,19.50
2014,07,17,02,46,19.50
2014,07,17,02,47,19.50
2014,07,17,02,48,19.50
2014,07,17,02,49,19.40
2014,07,17,02,50,19.40
2014,07,17,02,51,19.40
2014,07,17,02,52,19.30
2014,07,17,02,53,19.30
2014,07,17,02,54,19.30
2014,07,17,02,55,19.30
2014,07,17,02,56,19.30
2014,07,17,02,57,19.30
2014,07,17,02,58,19.30
2014,07,17,02,59,19.30
2014,07,17,03,00,19.20
2014,07,17,03,01,19.20
2014,07,17,03,02,19.20
2014,07,17,03,03,19.20
2014,07,17,03,04,19.20
2014,07,17,03,05,19.20
2014,07,17,03,06,19.20
2014,07,17,03,07,19.10
2014,07,17,03,08,19.10
2014,07,17,03,09,19.10
2014,07,17,03,10,19.10
2014,07,17,03,11,19.10
2014,07,17,03,12,19.00
2014,07,17,03,13,19.00
2014,07,17,03,14,19.00
2014,07,17,03,15,18.90
2014,07,17,03,16,18.90
2014,07,17,03,17,18.90
2014,07,17,03,18,18.90
2014,07,17,03,19,18.80
2014,07,17,03,20,18.80
2014,07,17,03,21,18.80
2014,07,17,03,22,18.80
2014,07,17,03,23,18.80
2014,07,17,03,24,18.70
2014,07,17,03,25,18.70
2014,07,17,03,26,18.70
2014,07,17,03,27,18.70
2014,07,17,03,28,18.70
2014,07,17,03,29,18.70
2014,07,17,03,30,18.70
2014,07,17,03,31,18.60
2014,07,17,03,32,18.60
2014,07,17,03,33,18.60
2014,07,17,03,34,18.60
2014,07,17,03,35,18.60
2014,07,17,03,36,18.60
2014,07,17,03,37,18.60
2014,07,17,03,38,18.60
2014,07,17,03,39,18.60
2014,07,17,03,40,18.50
2014,07,17,03,41,18.50
2014,07,17,03,42,18.50
2014,07,17,03,43,18.50
2014,07,17,03,44,18.40
2014,07,17,03,45,18.40
2014,07,17,03,46,18.40
2014,07,17,03,47,18.40
2014,07,17,03,48,18.40
2014,07,17,03,49,18.40
2014,07,17,03,50,18.40
2014,07,17,03,51,18.40
2014,07,17,03,52,18.40
2014,07,17,03,53,18.40
2014,07,17,03,54,18.40
2014,07,17,03,55,18.40
2014,07,17,03,56,18.40
2014,07,17,03,57,18.40
2014,07,17,03,58,18.40
2014,07,17,03,59,18.40
2014,07,17,04,00,18.40
2014,07,17,04,01,18.40
2014,07,17,04,02,18.40
2014,07,17,04,03,18.50
2014,07,17,04,04,18.50
2014,07,17,04,05,18.50
2014,07,17,04,06,18.50
2014,07,17,04,07,18.60
2014,07,17,04,08,18.60
2014,07,17,04,09,18.60
2014,07,17,04,10,18.60
2014,07,17,04,11,18.60
2014,07,17,04,12,18.70
2014,07,17,04,13,18.70
2014,07,17,04,14,18.70
2014,07,17,04,15,18.70
2014,07,17,04,16,18.70
2014,07,17,04,17,18.70
2014,07,17,04,18,18.70
2014,07,17,04,19,18.70
2014,07,17,04,20,18.70
2014,07,17,04,21,18.70
2014,07,17,04,22,18.70
2014,07,17,04,23,18.70
2014,07,17,04,24,18.70
2014,07,17,04,25,18.70
2014,07,17,04,26,18.70
2014,07,17,04,27,18.70
2014,07,17,04,28,18.70
2014,07,17,04,29,18.70
2014,07,17,04,30,18.70
2014,07,17,04,31,18.70
2014,07,17,04,32,18.80
2014,07,17,04,33,18.80
2014,07,17,04,34,18.80
2014,07,17,04,35,18.80
2014,07,17,04,36,18.80
2014,07,17,04,37,18.80
2014,07,17,04,38,18.80
2014,07,17,04,39,18.80
2014,07,17,04,40,18.80
2014,07,17,04,41,18.80
2014,07,17,04,42,18.80
2014,07,17,04,43,18.80
2014,07,17,04,44,18.80
2014,07,17,04,45,18.80
2014,07,17,04,46,18.80
2014,07,17,04,47,18.80
2014,07,17,04,48,18.80
2014,07,17,04,49,18.80
2014,07,17,04,50,18.80
2014,07,17,04,51,18.80
2014,07,17,04,52,18.80
2014,07,17,04,53,18.80
2014,07,17,04,54,18.80
2014,07,17,04,55,18.80
2014,07,17,04,56,18.80
2014,07,17,04,57,18.80
2014,07,17,04,58,18.80
2014,07,17,04,59,18.80
2014,07,17,05,00,18.80
2014,07,17,05,01,18.80
2014,07,17,05,02,18.80
2014,07,17,05,03,18.80
2014,07,17,05,04,18.80
2014,07,17,05,05,18.80
2014,07,17,05,06,18.80
2014,07,17,05,07,18.80
2014,07,17,05,08,18.80
2014,07,17,05,09,18.80
2014,07,17,05,10,18.80
2014,07,17,05,11,18.80
2014,07,17,05,12,18.70
2014,07,17,05,13,18.70
2014,07,17,05,14,18.70
2014,07,17,05,15,18.70
2014,07,17,05,16,18.60
2014,07,17,05,17,18.60
2014,07,17,05,18,18.60
2014,07,17,05,19,18.60
2014,07,17,05,20,18.50
2014,07,17,05,21,18.50
2014,07,17,05,22,18.50
2014,07,17,05,23,18.50
2014,07,17,05,24,18.40
2014,07,17,05,25,18.40
2014,07,17,05,26,18.40
2014,07,17,05,27,18.40
2014,07,17,05,28,18.40
2014,07,17,05,29,18.40
2014,07,17,05,30,18.40
2014,07,17,05,31,18.40
2014,07,17,05,32,18.40
2014,07,17,05,33,18.30
2014,07,17,05,34,18.30
2014,07,17,05,35,18.30
2014,07,17,05,36,18.30
2014,07,17,05,37,18.30
2014,07,17,05,38,18.30
2014,07,17,05,39,18.30
2014,07,17,05,40,18.30
2014,07,17,05,41,18.30
2014,07,17,05,42,18.30
2014,07,17,05,43,18.20
2014,07,17,05,44,18.20
2014,07,17,05,45,18.20
2014,07,17,05,46,18.20
2014,07,17,05,47,18.20
2014,07,17,05,48,18.20
2014,07,17,05,49,18.20
2014,07,17,05,50,18.20
2014,07,17,05,51,18.20
2014,07,17,05,52,18.20
2014,07,17,05,53,18.20
2014,07,17,05,54,18.20
2014,07,17,05,55,18.20
2014,07,17,05,56,18.20
2014,07,17,05,57,18.20
2014,07,17,05,58,18.20
2014,07,17,05,59,18.20
2014,07,17,06,00,18.20
2014,07,17,06,01,18.20
2014,07,17,06,02,18.20
2014,07,17,06,03,18.20
2014,07,17,06,04,18.20
2014,07,17,06,05,18.20
2014,07,17,06,06,18.20
2014,07,17,06,07,18.20
2014,07,17,06,08,18.20
2014,07,17,06,09,18.20
2014,07,17,06,10,18.20
2014,07,17,06,11,18.20
2014,07,17,06,12,18.10
2014,07,17,06,13,18.10
2014,07,17,06,14,18.10
2014,07,17,06,15,18.00
2014,07,17,06,16,18.00
2014,07,17,06,17,17.90
2014,07,17,06,18,17.90
2014,07,17,06,19,17.90
2014,07,17,06,20,17.80
2014,07,17,06,21,17.80
2014,07,17,06,22,17.80
2014,07,17,06,23,17.80
2014,07,17,06,24,17.80
2014,07,17,06,25,17.80
2014,07,17,06,26,17.80
2014,07,17,06,27,17.80
2014,07,17,06,28,17.80
2014,07,17,06,29,17.80
2014,07,17,06,30,17.90
2014,07,17,06,31,17.90
2014,07,17,06,32,18.00
2014,07,17,06,33,18.00
2014,07,17,06,34,18.10
2014,07,17,06,35,18.20
2014,07,17,06,36,18.30
2014,07,17,06,37,18.30
2014,07,17,06,38,18.40
2014,07,17,06,39,18.50
2014,07,17,06,40,18.50
2014,07,17,06,41,18.60
2014,07,17,06,42,18.60
2014,07,17,06,43,18.70
2014,07,17,06,44,18.70
2014,07,17,06,45,18.70
2014,07,17,06,46,18.70
2014,07,17,06,47,18.80
2014,07,17,06,48,18.80
2014,07,17,06,49,18.80
2014,07,17,06,50,18.90
2014,07,17,06,51,18.90
2014,07,17,06,52,18.90
2014,07,17,06,53,18.90
2014,07,17,06,54,18.90
2014,07,17,06,55,18.90
2014,07,17,06,56,18.90
2014,07,17,06,57,18.90
2014,07,17,06,58,18.90
2014,07,17,06,59,18.90
2014,07,17,07,00,18.90
2014,07,17,07,01,18.90
2014,07,17,07,02,18.90
2014,07,17,07,03,18.90
2014,07,17,07,04,18.90
2014,07,17,07,05,18.90
2014,07,17,07,06,18.90
2014,07,17,07,07,18.90
2014,07,17,07,08,18.90
2014,07,17,07,09,18.90
2014,07,17,07,10,18.90
2014,07,17,07,11,18.90
2014,07,17,07,12,18.90
2014,07,17,07,13,18.90
2014,07,17,07,14,18.90
2014,07,17,07,15,18.90
2014,07,17,07,16,18.90
2014,07,17,07,17,18.90
2014,07,17,07,18,18.90
2014,07,17,07,19,18.90
2014,07,17,07,20,19.00
2014,07,17,07,21,19.00
2014,07,17,07,22,19.00
2014,07,17,07,23,19.00
2014,07,17,07,24,19.10
2014,07,17,07,25,19.10
2014,07,17,07,26,19.10
2014,07,17,07,27,19.10
2014,07,17,07,28,19.10
2014,07,17,07,29,19.10
2014,07,17,07,30,19.10
2014,07,17,07,31,19.10
2014,07,17,07,32,19.10
2014,07,17,07,33,19.20
2014,07,17,07,34,19.20
2014,07,17,07,35,19.20
2014,07,17,07,36,19.30
2014,07,17,07,37,19.30
2014,07,17,07,38,19.30
2014,07,17,07,39,19.30
2014,07,17,07,40,19.40
2014,07,17,07,41,19.40
2014,07,17,07,42,19.40
2014,07,17,07,43,19.40
2014,07,17,07,44,19.40
2014,07,17,07,45,19.40
2014,07,17,07,46,19.50
2014,07,17,07,47,19.50
2014,07,17,07,48,19.50
2014,07,17,07,49,19.60
2014,07,17,07,50,19.60
2014,07,17,07,51,19.60
2014,07,17,07,52,19.70
2014,07,17,07,53,19.70
2014,07,17,07,54,19.70
2014,07,17,07,55,19.80
2014,07,17,07,56,19.80
2014,07,17,07,57,19.80
2014,07,17,07,58,19.80
2014,07,17,07,59,19.80
2014,07,17,08,00,19.90
2014,07,17,08,01,19.90
2014,07,17,08,02,19.90
2014,07,17,08,03,20.00
2014,07,17,08,04,20.00
2014,07,17,08,05,20.10
2014,07,17,08,06,20.10
2014,07,17,08,07,20.10
2014,07,17,08,08,20.20
2014,07,17,08,09,20.20
2014,07,17,08,10,20.20
2014,07,17,08,11,20.30
2014,07,17,08,12,20.30
2014,07,17,08,13,20.30
2014,07,17,08,14,20.30
2014,07,17,08,15,20.30
2014,07,17,08,16,20.30
2014,07,17,08,17,20.30
2014,07,17,08,18,20.30
2014,07,17,08,19,20.40
2014,07,17,08,20,20.40
2014,07,17,08,21,20.40
2014,07,17,08,22,20.50
2014,07,17,08,23,20.50
2014,07,17,08,24,20.50
2014,07,17,08,25,20.60
2014,07,17,08,26,20.60
2014,07,17,08,27,20.60
2014,07,17,08,28,20.70
2014,07,17,08,29,20.70
2014,07,17,08,30,20.80
2014,07,17,08,31,20.80
2014,07,17,08,32,20.80
2014,07,17,08,33,20.80
2014,07,17,08,34,20.80
2014,07,17,08,35,20.80
2014,07,17,08,36,20.90
2014,07,17,08,37,20.90
2014,07,17,08,38,20.80
2014,07,17,08,39,20.80
2014,07,17,08,40,20.80
2014,07,17,08,41,20.80
2014,07,17,08,42,20.80
2014,07,17,08,43,20.80
2014,07,17,08,44,20.90
2014,07,17,08,45,20.90
2014,07,17,08,46,20.90
2014,07,17,08,47,20.90
2014,07,17,08,48,20.80
2014,07,17,08,49,20.80
2014,07,17,08,50,20.80
2014,07,17,08,51,20.80
2014,07,17,08,52,20.80
2014,07,17,08,53,20.80
2014,07,17,08,54,20.80
2014,07,17,08,55,20.80
2014,07,17,08,56,20.90
2014,07,17,08,57,20.90
2014,07,17,08,58,20.90
2014,07,17,08,59,20.90
2014,07,17,09,00,20.90
2014,07,17,09,01,21.00
2014,07,17,09,02,21.00
2014,07,17,09,03,21.10
2014,07,17,09,04,21.10
2014,07,17,09,05,21.20
2014,07,17,09,06,21.20
2014,07,17,09,07,21.30
2014,07,17,09,08,21.30
2014,07,17,09,09,21.30
2014,07,17,09,10,21.40
2014,07,17,09,11,21.40
2014,07,17,09,12,21.40
2014,07,17,09,13,21.40
2014,07,17,09,14,21.40
2014,07,17,09,15,21.40
2014,07,17,09,16,21.40
2014,07,17,09,17,21.40
2014,07,17,09,18,21.40
2014,07,17,09,19,21.40
2014,07,17,09,20,21.40
2014,07,17,09,21,21.40
2014,07,17,09,22,21.40
2014,07,17,09,23,21.40
2014,07,17,09,24,21.40
2014,07,17,09,25,21.40
2014,07,17,09,26,21.50
2014,07,17,09,27,21.50
2014,07,17,09,28,21.60
2014,07,17,09,29,21.60
2014,07,17,09,30,21.60
2014,07,17,09,31,21.70
2014,07,17,09,32,21.80
2014,07,17,09,33,21.80
2014,07,17,09,34,21.90
2014,07,17,09,35,22.00
2014,07,17,09,36,22.10
2014,07,17,09,37,22.10
2014,07,17,09,38,22.20
2014,07,17,09,39,22.20
2014,07,17,09,40,22.20
2014,07,17,09,41,22.20
2014,07,17,09,42,22.30
2014,07,17,09,43,22.30
2014,07,17,09,44,22.30
2014,07,17,09,45,22.30
2014,07,17,09,46,22.40
2014,07,17,09,47,22.40
2014,07,17,09,48,22.50
2014,07,17,09,49,22.50
2014,07,17,09,50,22.60
2014,07,17,09,51,22.60
2014,07,17,09,52,22.60
2014,07,17,09,53,22.60
2014,07,17,09,54,22.70
2014,07,17,09,55,22.70
2014,07,17,09,56,22.80
2014,07,17,09,57,22.90
2014,07,17,09,58,22.90
2014,07,17,09,59,22.90
2014,07,17,10,00,23.00
2014,07,17,10,01,23.00
2014,07,17,10,02,23.00
2014,07,17,10,03,23.00
2014,07,17,10,04,23.00
2014,07,17,10,05,23.00
2014,07,17,10,06,23.10
2014,07,17,10,07,23.10
2014,07,17,10,08,23.20
2014,07,17,10,09,23.30
2014,07,17,10,10,23.20
2014,07,17,10,11,23.20
2014,07,17,10,12,23.30
2014,07,17,10,13,23.30
2014,07,17,10,14,23.30
2014,07,17,10,15,23.30
2014,07,17,10,16,23.30
2014,07,17,10,17,23.40
2014,07,17,10,18,23.50
2014,07,17,10,19,23.60
2014,07,17,10,20,23.60
2014,07,17,10,21,23.60
2014,07,17,10,22,23.60
2014,07,17,10,23,23.50
2014,07,17,10,24,23.50
2014,07,17,10,25,23.50
2014,07,17,10,26,23.60
2014,07,17,10,27,23.60
2014,07,17,10,28,23.60
2014,07,17,10,29,23.70
2014,07,17,10,30,23.80
2014,07,17,10,31,23.80
2014,07,17,10,32,23.80
2014,07,17,10,33,23.80
2014,07,17,10,34,23.80
2014,07,17,10,35,23.80
2014,07,17,10,36,23.80
2014,07,17,10,37,23.80
2014,07,17,10,38,23.70
2014,07,17,10,39,23.60
2014,07,17,10,40,23.60
2014,07,17,10,41,23.60
2014,07,17,10,42,23.60
2014,07,17,10,43,23.70
2014,07,17,10,44,23.70
2014,07,17,10,45,23.70
2014,07,17,10,46,23.60
2014,07,17,10,47,23.50
2014,07,17,10,48,23.60
2014,07,17,10,49,23.60
2014,07,17,10,50,23.60
2014,07,17,10,51,23.70
2014,07,17,10,52,23.70
2014,07,17,10,53,23.80
2014,07,17,10,54,23.90
2014,07,17,10,55,23.90
2014,07,17,10,56,23.90
2014,07,17,10,57,23.90
2014,07,17,10,58,23.90
2014,07,17,10,59,24.00
2014,07,17,11,00,24.10
2014,07,17,11,01,24.10
2014,07,17,11,02,24.20
2014,07,17,11,03,24.10
2014,07,17,11,04,24.10
2014,07,17,11,05,24.10
2014,07,17,11,06,24.10
2014,07,17,11,07,24.20
2014,07,17,11,08,24.20
2014,07,17,11,09,24.30
2014,07,17,11,10,24.20
2014,07,17,11,11,24.20
2014,07,17,11,12,24.20
2014,07,17,11,13,24.20
2014,07,17,11,14,24.20
2014,07,17,11,15,24.20
2014,07,17,11,16,24.20
2014,07,17,11,17,24.10
2014,07,17,11,18,24.10
2014,07,17,11,19,24.10
2014,07,17,11,20,24.10
2014,07,17,11,21,24.20
2014,07,17,11,22,24.20
2014,07,17,11,23,24.20
2014,07,17,11,24,24.30
2014,07,17,11,25,24.30
2014,07,17,11,26,24.30
2014,07,17,11,27,24.30
2014,07,17,11,28,24.40
2014,07,17,11,29,24.40
2014,07,17,11,30,24.40
2014,07,17,11,31,24.50
2014,07,17,11,32,24.50
2014,07,17,11,33,24.50
2014,07,17,11,34,24.50
2014,07,17,11,35,24.40
2014,07,17,11,36,24.40
2014,07,17,11,37,24.40
2014,07,17,11,38,24.40
2014,07,17,11,39,24.40
2014,07,17,11,40,24.50
2014,07,17,11,41,24.50
2014,07,17,11,42,24.50
2014,07,17,11,43,24.40
2014,07,17,11,44,24.40
2014,07,17,11,45,24.30
2014,07,17,11,46,24.30
2014,07,17,11,47,24.20
2014,07,17,11,48,24.20
2014,07,17,11,49,24.10
2014,07,17,11,50,23.90
2014,07,17,11,51,23.70
2014,07,17,11,52,23.70
2014,07,17,11,53,23.60
2014,07,17,11,54,23.60
2014,07,17,11,55,23.60
2014,07,17,11,56,23.60
2014,07,17,11,57,23.60
2014,07,17,11,58,23.60
2014,07,17,11,59,23.60
2014,07,17,12,00,23.70
2014,07,17,12,01,23.80
2014,07,17,12,02,23.90
2014,07,17,12,03,23.90
2014,07,17,12,04,23.90
2014,07,17,12,05,23.90
2014,07,17,12,06,23.80
2014,07,17,12,07,23.70
2014,07,17,12,08,23.60
2014,07,17,12,09,23.60
2014,07,17,12,10,23.60
2014,07,17,12,11,23.50
2014,07,17,12,12,23.40
2014,07,17,12,13,23.30
2014,07,17,12,14,23.20
2014,07,17,12,15,23.10
2014,07,17,12,16,23.10
2014,07,17,12,17,23.10
2014,07,17,12,18,23.10
2014,07,17,12,19,23.20
2014,07,17,12,20,23.30
2014,07,17,12,21,23.50
2014,07,17,12,22,23.50
2014,07,17,12,23,23.50
2014,07,17,12,24,23.50
2014,07,17,12,25,23.50
2014,07,17,12,26,23.40
2014,07,17,12,27,23.30
2014,07,17,12,28,23.20
2014,07,17,12,29,23.10
2014,07,17,12,30,23.10
2014,07,17,12,31,23.20
2014,07,17,12,32,23.20
2014,07,17,12,33,23.10
2014,07,17,12,34,23.10
2014,07,17,12,35,23.20
2014,07,17,12,36,23.20
2014,07,17,12,37,23.30
2014,07,17,12,38,23.50
2014,07,17,12,39,23.50
2014,07,17,12,40,23.40
2014,07,17,12,41,23.40
2014,07,17,12,42,23.30
2014,07,17,12,43,23.30
2014,07,17,12,44,23.30
2014,07,17,12,45,23.30
2014,07,17,12,46,23.30
2014,07,17,12,47,23.30
2014,07,17,12,48,23.20
2014,07,17,12,49,23.00
2014,07,17,12,50,22.90
2014,07,17,12,51,22.90
2014,07,17,12,52,22.90
2014,07,17,12,53,22.80
2014,07,17,12,54,22.80
2014,07,17,12,55,22.80
2014,07,17,12,56,22.80
2014,07,17,12,57,22.80
2014,07,17,12,58,22.80
2014,07,17,12,59,22.80
2014,07,17,13,00,22.80
2014,07,17,13,01,22.80
2014,07,17,13,02,22.80
2014,07,17,13,03,22.90
2014,07,17,13,04,22.90
2014,07,17,13,05,23.00
2014,07,17,13,06,23.00
2014,07,17,13,07,22.90
2014,07,17,13,08,22.70
2014,07,17,13,09,22.60
2014,07,17,13,10,22.50
2014,07,17,13,11,22.40
2014,07,17,13,12,22.60
2014,07,17,13,13,22.60
2014,07,17,13,14,22.60
2014,07,17,13,15,22.50
2014,07,17,13,16,22.40
2014,07,17,13,17,22.30
2014,07,17,13,18,22.20
2014,07,17,13,19,22.30
2014,07,17,13,20,22.50
2014,07,17,13,21,22.60
2014,07,17,13,22,22.70
2014,07,17,13,23,22.80
2014,07,17,13,24,23.00
2014,07,17,13,25,23.20
2014,07,17,13,26,23.30
2014,07,17,13,27,23.40
2014,07,17,13,28,23.50
2014,07,17,13,29,23.50
2014,07,17,13,30,23.60
2014,07,17,13,31,23.60
2014,07,17,13,32,23.70
2014,07,17,13,33,23.70
2014,07,17,13,34,23.70
2014,07,17,13,35,23.70
2014,07,17,13,36,23.80
2014,07,17,13,37,23.80
2014,07,17,13,38,23.90
2014,07,17,13,39,24.00
2014,07,17,13,40,24.20
2014,07,17,13,41,24.20
2014,07,17,13,42,24.20
2014,07,17,13,43,24.10
2014,07,17,13,44,24.00
2014,07,17,13,45,24.00
2014,07,17,13,46,24.00
2014,07,17,13,47,24.00
2014,07,17,13,48,23.90
2014,07,17,13,49,23.80
2014,07,17,13,50,23.70
2014,07,17,13,51,23.70
2014,07,17,13,52,23.60
2014,07,17,13,53,23.60
2014,07,17,13,54,23.60
2014,07,17,13,55,23.60
2014,07,17,13,56,23.50
2014,07,17,13,57,23.40
2014,07,17,13,58,23.30
2014,07,17,13,59,23.30
2014,07,17,14,00,23.20
2014,07,17,14,01,23.20
2014,07,17,14,02,23.20
2014,07,17,14,03,23.30
2014,07,17,14,04,23.30
2014,07,17,14,05,23.40
2014,07,17,14,06,23.40
2014,07,17,14,07,23.50
2014,07,17,14,08,23.60
2014,07,17,14,09,23.80
2014,07,17,14,10,23.90
2014,07,17,14,11,24.00
2014,07,17,14,12,23.90
2014,07,17,14,13,23.70
2014,07,17,14,14,23.50
2014,07,17,14,15,23.40
2014,07,17,14,16,23.50
2014,07,17,14,17,23.50
2014,07,17,14,18,23.50
2014,07,17,14,19,23.30
2014,07,17,14,20,23.10
2014,07,17,14,21,23.10
2014,07,17,14,22,23.10
2014,07,17,14,23,23.20
2014,07,17,14,24,23.20
2014,07,17,14,25,23.20
2014,07,17,14,26,23.20
2014,07,17,14,27,23.20
2014,07,17,14,28,23.20
2014,07,17,14,29,23.20
2014,07,17,14,30,23.30
2014,07,17,14,31,23.50
2014,07,17,14,32,23.60
2014,07,17,14,33,23.50
2014,07,17,14,34,23.50
2014,07,17,14,35,23.60
2014,07,17,14,36,23.70
2014,07,17,14,37,23.80
2014,07,17,14,38,23.80
2014,07,17,14,39,23.80
2014,07,17,14,40,23.80
2014,07,17,14,41,23.60
2014,07,17,14,42,23.50
2014,07,17,14,43,23.30
2014,07,17,14,44,23.00
2014,07,17,14,45,22.90
2014,07,17,14,46,22.70
2014,07,17,14,47,22.70
2014,07,17,14,48,22.70
2014,07,17,14,49,22.70
2014,07,17,14,50,22.70
2014,07,17,14,51,22.80
2014,07,17,14,52,22.90
2014,07,17,14,53,23.00
2014,07,17,14,54,23.10
2014,07,17,14,55,23.30
2014,07,17,14,56,23.40
2014,07,17,14,57,23.50
2014,07,17,14,58,23.60
2014,07,17,14,59,23.70
2014,07,17,15,00,23.70
2014,07,17,15,01,23.70
2014,07,17,15,02,23.70
2014,07,17,15,03,23.70
2014,07,17,15,04,23.80
2014,07,17,15,05,23.90
2014,07,17,15,06,23.90
2014,07,17,15,07,23.90
2014,07,17,15,08,23.90
2014,07,17,15,09,23.80
2014,07,17,15,10,23.80
2014,07,17,15,11,23.80
2014,07,17,15,12,23.80
2014,07,17,15,13,23.70
2014,07,17,15,14,23.70
2014,07,17,15,15,23.70
2014,07,17,15,16,23.80
2014,07,17,15,17,23.90
2014,07,17,15,18,23.90
2014,07,17,15,19,23.90
2014,07,17,15,20,23.90
2014,07,17,15,21,23.80
2014,07,17,15,22,23.80
2014,07,17,15,23,23.80
2014,07,17,15,24,23.90
2014,07,17,15,25,23.90
2014,07,17,15,26,23.90
2014,07,17,15,27,24.00
2014,07,17,15,28,24.10
2014,07,17,15,29,24.20
2014,07,17,15,30,24.30
2014,07,17,15,31,24.30
2014,07,17,15,32,24.40
2014,07,17,15,33,24.50
2014,07,17,15,34,24.60
2014,07,17,15,35,24.70
2014,07,17,15,36,24.80
2014,07,17,15,37,24.80
2014,07,17,15,38,24.80
2014,07,17,15,39,24.80
2014,07,17,15,40,24.80
2014,07,17,15,41,24.70
2014,07,17,15,42,24.70
2014,07,17,15,43,24.70
2014,07,17,15,44,24.60
2014,07,17,15,45,24.70
2014,07,17,15,46,24.70
2014,07,17,15,47,24.60
2014,07,17,15,48,24.50
2014,07,17,15,49,24.30
2014,07,17,15,50,24.20
2014,07,17,15,51,24.10
2014,07,17,15,52,23.90
2014,07,17,15,53,23.90
2014,07,17,15,54,23.80
2014,07,17,15,55,23.80
2014,07,17,15,56,23.90
2014,07,17,15,57,24.00
2014,07,17,15,58,24.00
2014,07,17,15,59,24.10
2014,07,17,16,00,24.20
2014,07,17,16,01,24.30
2014,07,17,16,02,24.50
2014,07,17,16,03,24.60
2014,07,17,16,04,24.70
2014,07,17,16,05,24.60
2014,07,17,16,06,24.40
2014,07,17,16,07,24.30
2014,07,17,16,08,24.30
2014,07,17,16,09,24.20
2014,07,17,16,10,24.20
2014,07,17,16,11,24.30
2014,07,17,16,12,24.40
2014,07,17,16,13,24.60
2014,07,17,16,14,24.70
2014,07,17,16,15,24.80
2014,07,17,16,16,24.90
2014,07,17,16,17,25.00
2014,07,17,16,18,25.00
2014,07,17,16,19,25.10
2014,07,17,16,20,25.10
2014,07,17,16,21,25.10
2014,07,17,16,22,25.10
2014,07,17,16,23,25.10
2014,07,17,16,24,25.10
2014,07,17,16,25,25.10
2014,07,17,16,26,25.20
2014,07,17,16,27,25.20
2014,07,17,16,28,25.20
2014,07,17,16,29,25.00
2014,07,17,16,30,24.80
2014,07,17,16,31,24.70
2014,07,17,16,32,24.70
2014,07,17,16,33,24.60
2014,07,17,16,34,24.50
2014,07,17,16,35,24.50
2014,07,17,16,36,24.60
2014,07,17,16,37,24.60
2014,07,17,16,38,24.70
2014,07,17,16,39,24.80
2014,07,17,16,40,24.90
2014,07,17,16,41,25.00
2014,07,17,16,42,25.10
2014,07,17,16,43,25.10
2014,07,17,16,44,25.20
2014,07,17,16,45,25.10
2014,07,17,16,46,25.10
2014,07,17,16,47,24.80
2014,07,17,16,48,24.60
2014,07,17,16,49,24.30
2014,07,17,16,50,24.10
2014,07,17,16,51,24.00
2014,07,17,16,52,23.90
2014,07,17,16,53,23.80
2014,07,17,16,54,23.60
2014,07,17,16,55,23.60
2014,07,17,16,56,23.50
2014,07,17,16,57,23.60
2014,07,17,16,58,23.60
2014,07,17,16,59,23.80
2014,07,17,17,00,23.90
2014,07,17,17,01,24.00
2014,07,17,17,02,24.10
2014,07,17,17,03,24.10
2014,07,17,17,04,24.20
2014,07,17,17,05,24.20
2014,07,17,17,06,24.20
2014,07,17,17,07,24.30
2014,07,17,17,08,24.40
2014,07,17,17,09,24.50
2014,07,17,17,10,24.60
2014,07,17,17,11,24.70
2014,07,17,17,12,24.70
2014,07,17,17,13,24.60
2014,07,17,17,14,24.50
2014,07,17,17,15,24.40
2014,07,17,17,16,24.30
2014,07,17,17,17,24.20
2014,07,17,17,18,24.00
2014,07,17,17,19,23.90